STARLINK-3177, 51138

Orbit data source: Space-Track

STARLINK-3177, 51138 is a payload satellite owned by SpaceX/Seattle (US) in LEO that was launched on Wed, 19 Jan 2022 UTC via an FALCON 9 launch vehicle from the Air Force Eastern Test Range (AFETR). Payload-class satellites include a variety of spacecraft equipped with specific instruments for various scientific and technological missions. These include communications satellites like Starlink; space stations such as the ISS; scientific satellites like the Hubble; Earth observation satellites from companies like Planet Labs, Umbra, and HawkEye 360; GPS; miniature CubeSats for education and research; and military/defense satellites.

Loading next visibility...
Identifier
51138, 2022-005AL
Orbit
LEO
Country
Flag of USUS
Related business
Manufacturer
SpaceX/Seattle
Mission
Operational Commercial Communications
Bus & Motor
STARLINK, Unknown motor
Mass
297 kg wet, ~275 kg dry
Launch date (UTC)
2022-01-19 (4 years ago)
Launch vehicle
FALCON 9
Launch site
Air Force Eastern Test Range (AFETR)
Object type
Payload
Rocket body
Debris
Shape & HBR
Box + 1 Pan, 10.1 m
Radar Cross Section
13.562 m², Large (>1 m²)

Expand to show TLE details & history
Last TLE update: 8 hours ago

TLE from 8 hours ago
0 STARLINK-3177
1 51138U 22005AL  26094.29255476  .00000731  00000-0  64048-4 0  9995
2 51138  53.2169 184.1805 0001701  94.6957 265.4230 15.08835042232591
Epoch: 2026-04-04T07:01Z
TLE epoch observation values (Epoch: 2026-04-04T07:01:16.731Z)
Latitude
0.00003°
Longitude
-113.75361°
Altitude
540.75 km
Speed
7.593 km/s
True Right ascension
12h 16m 43s
True Declination
0° 00' 00"
Sunlit
Object was in full shadow at epoch
Visualization orbit readout
Latitude
Unknown
Longitude
Unknown
Altitude
Unknown
Speed
Unknown
Apparent Right ascension
Unknown
Apparent Declination
Unknown
Sunlit
N/A
Visualization observer readout
Local Sidereal Time
20:30:10
Azimuth
Unknown
Elevation
Unknown
Doppler factor
Unknown
Orbital elements
Apogee altitude
541.18 km
Perigee altitude
538.827 km
Semi-major axis
6,918.141 km
Eccentricity
0.00017
Inclination
53.2169°
RAAN
184.1805°
Arg. of periapsis
94.6957°
True anomaly
265.40357°
Mean anomaly
265.423°
Eccentric anomaly
265.41329°
Mean motion
3.77189 °/min
Orbital period
95.44 mins
BSTAR
0.000064048
Loading maneuver chart data...
Computing Atmospheric mass density...
Loading historical data...
Loading historical data...
Loading historical data...
Loading historical data...
Loading historical data...
Loading historical data...
Loading historical data...

Documentation

Showing up to 5 results
|